Date String (YYYY-MM-DD hh:mm:ss) UTC,Instrument flags,absolute air pressure of the measurement (hPa),sample flow rate (lpm),inlet stack bypass flow (lpm),air temperature of the measurement (°C),ambient temperature measured by the external sensor (°C),aerosol sample conditioner tube jacket temperature (°C),OPC LED temperature (°C),internal box temperature (°C),relative humidity of the measurement (%),span deviation,mass concentration of particles derived from Lorenz-Mie calculation of OPC scattering (μg/m³),mass concentration of particles derived from Lorenz-Mie calculation of OPC scattering (μg/m³),mass concentration of particles derived from Lorenz-Mie calculation of OPC scattering (μg/m³)
DateTimeUTC,F1_M11,P_M11,Q1_M11,Q2_M11,T1_M11,T2_M11,T3_M11,T4_M11,T5_M11,U1_M11,ZSPAN_M11,X2_M11,X0_M11,X1_M11
2024-05-21 18:00:00,SystemResetWarning,0823.8,5.01,000.00,028.5,027.8,000.0,036.7,030.2,020.9,0000.0,0003.80,0008.48,0003.44
2024-05-21 18:01:00,SystemResetWarning,0823.7,4.99,000.00,028.5,027.8,000.0,036.7,030.2,020.1,0000.0,0003.80,0008.53,0003.44
2024-05-21 18:02:00,SystemResetWarning,0823.7,4.99,000.00,028.5,027.8,000.0,036.8,030.2,018.8,0000.0,0003.78,0008.50,0003.43
2024-05-21 18:03:00,SystemResetWarning,0823.6,5.00,000.00,028.5,027.8,000.0,036.8,030.3,018.9,0000.0,0003.77,0008.57,0003.45
2024-05-21 18:04:00,SystemResetWarning,0823.6,5.01,000.00,028.5,027.8,000.0,036.8,030.3,018.5,0000.0,0003.79,0008.63,0003.46
2024-05-21 18:05:00,SystemResetWarning,0823.6,5.00,000.00,028.6,027.9,000.0,036.8,030.3,019.5,0000.0,0003.83,0008.77,0003.48
2024-05-21 18:06:00,SystemResetWarning,0823.6,4.98,000.00,028.6,027.9,000.0,036.8,030.3,019.3,0000.0,0003.88,0008.89,0003.49
2024-05-21 18:07:00,SystemResetWarning,0823.6,5.00,000.00,028.6,027.9,000.0,036.8,030.3,019.3,0000.0,0003.91,0009.13,0003.49
2024-05-21 18:08:00,SystemResetWarning,0823.6,5.02,000.00,028.6,027.9,000.0,036.8,030.3,018.3,0000.0,0003.88,0008.41,0003.46
2024-05-21 18:09:00,SystemResetWarning,0823.7,5.00,000.00,028.6,027.9,000.0,036.9,030.3,017.5,0000.0,0003.83,0007.10,0003.41
2024-05-21 18:10:00,SystemResetWarning,0823.7,4.99,000.00,028.6,027.9,000.0,036.9,030.3,017.2,0000.0,0003.77,0007.53,0003.35
2024-05-21 18:11:00,SystemResetWarning,0823.7,4.99,000.00,028.6,027.9,000.0,036.9,030.3,017.9,0000.0,0003.68,0007.53,0003.29
2024-05-21 18:12:00,SystemResetWarning,0823.6,4.99,000.00,028.6,027.9,000.0,036.9,030.3,018.0,0000.0,0003.62,0007.49,0003.23
2024-05-21 18:13:00,SystemResetWarning,0823.6,5.00,000.00,028.6,027.9,000.0,036.9,030.3,018.3,0000.0,0003.57,0007.47,0003.17
2024-05-21 18:14:00,SystemResetWarning,0823.6,5.01,000.00,028.6,027.8,000.0,036.9,030.3,017.8,0000.0,0003.53,0007.41,0003.10
2024-05-21 18:15:00,SystemResetWarning,0823.6,5.00,000.00,028.6,027.8,000.0,036.9,030.3,017.4,0000.0,0003.47,0007.34,0003.00
2024-05-21 18:16:00,SystemResetWarning,0823.6,4.99,000.00,028.6,027.8,000.0,036.9,030.3,017.4,0000.0,0003.39,0007.77,0002.89
2024-05-21 18:17:00,SystemResetWarning,0823.6,4.99,000.00,028.6,027.8,000.0,036.9,030.3,017.2,0000.0,0003.33,0007.79,0002.80
2024-05-21 18:18:00,SystemResetWarning,0823.6,5.00,000.00,028.5,027.8,000.0,036.9,030.3,017.0,0000.0,0003.26,0007.51,0002.73
2024-05-21 18:19:00,SystemResetWarning,0823.6,5.01,000.00,028.5,027.8,000.0,036.9,030.3,017.0,0000.0,0003.26,0007.45,0002.72
2024-05-21 18:20:00,SystemResetWarning,0823.5,5.00,000.00,028.5,027.7,000.0,036.9,030.2,017.1,0000.0,0003.30,0007.51,0002.75
2024-05-21 18:21:00,SystemResetWarning,0823.6,4.99,000.00,028.5,027.7,000.0,036.9,030.2,017.5,0000.0,0003.32,0006.82,0002.77
2024-05-21 18:22:00,SystemResetWarning,0823.5,4.99,000.00,028.5,027.7,000.0,036.9,030.2,017.9,0000.0,0003.33,0007.51,0002.80
2024-05-21 18:23:00,SystemResetWarning,0823.5,5.00,000.00,028.5,027.7,000.0,036.9,030.2,017.9,0000.0,0003.38,0007.95,0002.83
2024-05-21 18:24:00,SystemResetWarning,0823.5,5.02,000.00,028.5,027.7,000.0,036.9,030.2,017.7,0000.0,0003.37,0008.64,0002.85
2024-05-21 18:25:00,SystemResetWarning,0823.5,5.00,000.00,028.5,027.7,000.0,036.9,030.2,017.2,0000.0,0003.37,0009.03,0002.86
2024-05-21 18:26:00,SystemResetWarning,0823.5,4.99,000.00,028.5,027.7,000.0,036.9,030.2,017.6,0000.0,0003.39,0009.02,0002.88
2024-05-21 18:27:00,SystemResetWarning,0823.5,4.99,000.00,028.5,027.7,000.0,036.9,030.2,018.5,0000.0,0003.39,0009.00,0002.89
2024-05-21 18:28:00,SystemResetWarning,0823.5,5.01,000.00,028.5,027.7,000.0,036.9,030.2,018.2,0000.0,0003.40,0009.13,0002.89
2024-05-21 18:29:00,SystemResetWarning,0823.6,5.01,000.00,028.5,027.7,000.0,036.9,030.2,017.9,0000.0,0003.42,0010.43,0002.90
2024-05-21 18:30:00,SystemResetWarning,0823.6,4.98,000.00,028.5,027.7,000.0,036.9,030.2,017.1,0000.0,0003.43,0011.38,0002.93
2024-05-21 18:31:00,SystemResetWarning,0823.6,5.00,000.00,028.5,027.7,000.0,036.9,030.2,016.9,0000.0,0003.43,0011.48,0002.97
2024-05-21 18:32:00,SystemResetWarning,0823.6,5.01,000.00,028.5,027.7,000.0,036.9,030.2,017.3,0000.0,0003.48,0011.52,0003.02
2024-05-21 18:33:00,SystemResetWarning,0823.6,5.01,000.00,028.5,027.7,000.0,036.9,030.2,018.2,0000.0,0003.50,0010.91,0003.04
2024-05-21 18:34:00,SystemResetWarning,0823.6,4.99,000.00,028.5,027.7,000.0,036.9,030.2,018.3,0000.0,0003.46,0010.44,0003.03
2024-05-21 18:35:00,SystemResetWarning,0823.6,4.99,000.00,028.5,027.7,000.0,036.9,030.2,018.4,0000.0,0003.46,0009.64,0003.03
2024-05-21 18:36:00,SystemResetWarning,0823.6,5.00,000.00,028.5,027.7,000.0,036.9,030.2,018.3,0000.0,0003.43,0009.23,0003.01
2024-05-21 18:37:00,SystemResetWarning,0823.5,5.00,000.00,028.5,027.7,000.0,036.9,030.3,018.5,0000.0,0003.39,0009.15,0002.97
2024-05-21 18:38:00,SystemResetWarning,0823.5,5.01,000.00,028.5,027.8,000.0,036.9,030.3,018.7,0000.0,0003.38,0009.15,0002.94
2024-05-21 18:39:00,SystemResetWarning,0823.5,5.00,000.00,028.5,027.8,000.0,036.9,030.3,018.1,0000.0,0003.37,0009.71,0002.91
2024-05-21 18:40:00,SystemResetWarning,0823.5,5.00,000.00,028.5,027.8,000.0,036.9,030.3,018.0,0000.0,0003.34,0009.45,0002.88
2024-05-21 18:41:00,SystemResetWarning,0823.5,5.00,000.00,028.5,027.8,000.0,036.9,030.3,017.5,0000.0,0003.32,0008.55,0002.84
2024-05-21 18:42:00,SystemResetWarning,0823.5,4.99,000.00,028.5,027.8,000.0,036.9,030.3,017.9,0000.0,0003.29,0008.45,0002.79
2024-05-21 18:43:00,SystemResetWarning,0823.5,4.99,000.00,028.5,027.8,000.0,036.9,030.3,017.6,0000.0,0003.26,0009.06,0002.72
2024-05-21 18:44:00,SystemResetWarning,0823.5,5.01,000.00,028.5,027.8,000.0,036.9,030.3,017.9,0000.0,0003.29,0009.33,0002.70
2024-05-21 18:45:00,SystemResetWarning,0823.5,5.01,000.00,028.5,027.8,000.0,036.9,030.3,018.6,0000.0,0003.33,0009.44,0002.72
2024-05-21 18:46:00,SystemResetWarning,0823.5,5.01,000.00,028.5,027.8,000.0,036.9,030.3,017.3,0000.0,0003.36,0009.99,0002.72
2024-05-21 18:47:00,SystemResetWarning,0823.5,5.00,000.00,028.5,027.8,000.0,036.9,030.3,017.8,0000.0,0003.40,0010.10,0002.74
2024-05-21 18:48:00,SystemResetWarning,0823.6,5.00,000.00,028.5,027.8,000.0,036.9,030.3,017.8,0000.0,0003.41,0010.21,0002.75
2024-05-21 18:49:00,SystemResetWarning,0823.6,5.00,000.00,028.5,027.8,000.0,036.9,030.2,017.8,0000.0,0003.40,0009.99,0002.76
2024-05-21 18:50:00,SystemResetWarning,0823.6,4.99,000.00,028.5,027.7,000.0,036.9,030.3,018.1,0000.0,0003.39,0009.21,0002.77
2024-05-21 18:51:00,SystemResetWarning,0823.6,5.00,000.00,028.5,027.7,000.0,036.9,030.2,017.9,0000.0,0003.42,0007.96,0002.79
2024-05-21 18:52:00,SystemResetWarning,0823.6,4.99,000.00,028.5,027.7,000.0,036.9,030.2,017.6,0000.0,0003.47,0008.06,0002.80
2024-05-21 18:53:00,SystemResetWarning,0823.6,5.00,000.00,028.5,027.7,000.0,036.9,030.2,017.4,0000.0,0003.47,0008.11,0002.79
2024-05-21 18:54:00,SystemResetWarning,0823.7,5.00,000.00,028.5,027.7,000.0,036.9,030.2,017.6,0000.0,0003.47,0007.97,0002.80
2024-05-21 18:55:00,SystemResetWarning,0823.7,5.01,000.00,028.5,027.7,000.0,036.9,030.2,018.1,0000.0,0003.42,0008.29,0002.79
2024-05-21 18:56:00,SystemResetWarning,0823.7,5.00,000.00,028.5,027.7,000.0,036.9,030.2,018.2,0000.0,0003.38,0008.16,0002.79
2024-05-21 18:57:00,SystemResetWarning,0823.7,4.99,000.00,028.5,027.7,000.0,036.9,030.2,017.9,0000.0,0003.37,0007.82,0002.80
2024-05-21 18:58:00,SystemResetWarning,0823.7,4.99,000.00,028.5,027.7,000.0,036.9,030.2,018.1,0000.0,0003.34,0007.68,0002.78
2024-05-21 18:59:00,SystemResetWarning,0823.8,5.01,000.00,028.5,027.7,000.0,036.9,030.2,017.8,0000.0,0003.34,0008.17,0002.78
